Other Public Products
Issued by NWS Grand Forks, ND

Home | Current Version | Previous Version | Text Only | Print | Product List | Glossary On
Versions: 1 2 3 4 5 6 7 8 9 10 11 12 13 14 15 16 17 18 19 20 21 22 23 24 25 26 27 28 29 30 31 32 33 34 35 36 37 38 39 40 41 42 43 44 45 46 47 48 49 50
000
FPUS83 KFGF 280810
OPUFGF
PRAIRIE TO PINES WEATHER ROUNDUP
NATIONAL WEATHER SERVICE EASTERN NORTH DAKOTA/GRAND FORKS ND
300 AM CDT MON MAY 28 2018

 **SATELLITE DATA USED TO AUGMENT SKY COVER AT AUTOMATED STATIONS**
 *****  WEATHER ACROSS EASTERN NORTH DAKOTA  *****

CITY           SKY/WX    TMP DP  RH WIND       PRES   REMARKS
GRAND FORKS    FAIR      60  59  96 NW6       29.91R
GRND FORKS AFB FAIR      60  60 100 N6        29.92R
GRND FORKS NWS   N/A     64  59  85 MISG      29.89R
BUXTON           N/A     68  65  89 N2          N/A
DEVILS LAKE    FAIR      63  60  90 N7        29.97F
FARGO          FAIR      68  60  75 NE10      29.87R
WAHPETON ARPT  FAIR      72  57  60 N9        29.83R
$$

 *****  WEATHER ACROSS CENTRAL AND WESTERN NORTH DAKOTA  *****

CITY           SKY/WX    TMP DP  RH WIND       PRES   REMARKS
JAMESTOWN      MOCLDY    65  59  81 NE7       29.94R
BISMARCK       FAIR      64  59  83 NW6       29.98S
MINOT          FAIR      61  50  67 NW10      30.02F
MINOT AFB      FAIR      62  49  62 N9        30.02S
GARRISON         N/A     65  53  65 NE8       30.01R
WILLISTON      FAIR      63  48  58 NE8       30.06S
DICKINSON      FAIR      61  56  83 E5        30.03R
HETTINGER      CLOUDY    60  57  89 CALM      30.04S
$$

 *****  OTHER OBSERVATIONS NORTHEAST NORTH DAKOTA  *****

CITY           SKY/WX    TMP DP  RH WIND       PRES   REMARKS
WALHALLA       FAIR      63  63 100 NW6       29.98R
LANGDON          N/A     66  59  77 NE9       30.00S
CAVALIER         N/A     68  61  77 N9        29.95R
GRAFTON        FAIR      64  61  88 N7        29.95R
CANDO          FAIR      61  61 100 N8        30.01S
FORT TOTTEN      N/A     66  60  81 NE2       29.95S
ROLLA          CLOUDY    59  57  94 NW9       30.05R
RUGBY          NOT AVBL
 ***** THE ABOVE OBSERVATIONS ARE NON NWS ARE NOT QUALITY
        CONTROLLED AND MAY MIS-REPORT RAIN FOR SNOW...
$$

 *****  OTHER OBSERVATIONS SOUTHEAST NORTH DAKOTA *****

CITY           SKY/WX    TMP DP  RH WIND       PRES   REMARKS
COOPERSTOWN    FAIR      64  61  88 NE3       29.95R
VALLEY CITY    CLOUDY    68  68 100 N8        29.94R
OAKES          NOT AVBL
GWINNER          N/A     68  63  83 N13       29.86S
SHEYENNE NWR     N/A     70  62  77 N7        29.95
BUFFALO          N/A     65  60  84 W7          N/A
WYNDMERE       NOT AVBL
 ***** THE ABOVE OBSERVATIONS ARE NON NWS ARE NOT QUALITY
       CONTROLLED AND MAY MIS-REPORT RAIN FOR SNOW...
$$

  *****  WEATHER ACROSS NORTHERN MINNESOTA  *****

CITY           SKY/WX    TMP DP  RH WIND       PRES   REMARKS
FLAG ISLAND    FAIR      64  55  72 NW6       29.94R
WARROAD        FAIR      57  54  88 CALM      29.94F
ROSEAU         FAIR      61  55  82 CALM      29.94S
HALLOCK        FAIR      63  59  88 N6        29.94R
THF RVR FALLS  FAIR      64  56  75 NE6       29.94R
HALSTAD          N/A     65  61  85 NE8         N/A
FOSSTON        MOCLDY    66  57  72 NE6       29.92R
BAUDETTE         N/A    N/A N/A N/A MISG      29.93R
WASKISH        FAIR      59  57  94 CALM      29.92S
CROOKSTON      MOCLDY    68  57  68 NE3       29.92R
$$
  *****  WEATHER ACROSS CENTRAL AND WEST MINNESOTA  *****

CITY           SKY/WX    TMP DP  RH WIND       PRES   REMARKS
BEMIDJI        FAIR      66  57  71 N5        29.91S
PARK RAPIDS    FAIR      67  62  84 N7        29.88R
WADENA         FAIR      66  59  77 NE7       29.85S
DETROIT LAKES  FAIR      68  63  83 NE8       29.89S
MOORHEAD       FAIR      68  61  77 N12       29.87R
FERGUS FALLS   FAIR      73  61  64 E14       29.77F
ELBOW LAKE     FAIR      72  62  70 E13       29.81S
MORRIS MN      FAIR      70  63  78 E9        29.79F
STAPLES        FAIR      66  57  72 N6        29.85S
WHEATON        FAIR      72  61  68 NE7       29.80F
$$
  *****  WEATHER ELSEWHERE ACROSS MINNESOTA  *****

CITY           SKY/WX    TMP DP  RH WIND       PRES   REMARKS
DULUTH         CLOUDY    65  61  87 N3        29.88F THUNDER
INTRNTL FALLS  FAIR      55  55 100 CALM      29.93R
ELY            MOCLDY    61  57  88 CALM      29.93R
CLOQUET        FAIR      63  57  82 CALM      29.88S
BRAINERD       FAIR      66  60  81 NE5       29.85S
HIBBING        TSTM      62  60  93 E7        29.90R FOG
ALEXANDRIA     FAIR      70  61  73 E7        29.84S
SAINT CLOUD    FAIR      67  59  75 CALM      29.82S
MINNEAPOLIS    FAIR      84  57  39 SW13      29.81F
$$

  *****  WEATHER ACROSS SOUTH DAKOTA  *****

CITY           SKY/WX    TMP DP  RH WIND       PRES   REMARKS
SIOUX FALLS    FAIR      78  58  49 VRB6      29.88R
BROOKINGS      FAIR      74  58  57 S8        29.87R
WATERTOWN      FAIR      72  61  68 S8        29.84R
HURON          FAIR      70  62  76 W13       29.87R
SISSETON         N/A     70  64  81 NW7       29.81R
ABERDEEN       FAIR      72  62  71 NW10      29.86R
MITCHELL       FAIR      74  65  73 NW13      29.89R
PIERRE         FAIR      66  60  81 N13G24    29.91F
MOBRIDGE       FAIR      69  63  81 NW3       29.92S
RAPID CITY     CLOUDY    58  55  90 SE8       29.98R
$$

  *****  SOME WEATHER IN NEARBY STATES *****

CITY           SKY/WX    TMP DP  RH WIND       PRES   REMARKS
GLASGOW MT     FAIR      64  43  46 E15       30.06S
GREAT FALLS MT FAIR      61  50  67 CALM      30.07S
CHEYENNE WY    CLOUDY    53  51  93 NW7       30.11F
SCOTTSBLUFF NE FAIR      61  57  87 MISG      29.96F
OMAHA NE       MOCLDY    78  63  59 SE5       29.91R
DES MOINES IA  FAIR      78  68  71 S5        29.89S
DAVENPORT IA   FAIR      72  66  81 W3        29.92R
CHICAGO IL     FAIR      75  61  61 CALM      29.88S
EAU CLAIRE WI  TSTM      69  63  81 VRB5      29.85R
LA CROSSE WI   FAIR      73  67  81 S8        29.86S
$$

  *****  SOME NATIONAL WEATHER *****

CITY           SKY/WX    TMP DP  RH WIND       PRES   REMARKS
LA GUARDIA NY  LGT RAIN  56  51  84 E8        30.07F
RALEIGH NC     CLOUDY    71  69  93 SE3       30.01F
ATLANTA GA     LGT RAIN  70  67  90 NE12      29.87F
NEW ORLEANS LA FAIR      82  72  71 NE9       29.75F
OKLAHOMA CITY  MOCLDY    73  67  81 SE12      29.88F
ALBUQUERQUE NM FAIR      65  12  12 E5        29.98S
SALT LAKE CITY PTCLDY    55  50  82 SE6       30.02F
LOS ANGELES CA FAIR      61  55  81 NW6       29.96S
BOISE ID       MOCLDY    60  59  96 W3        30.02F
SEATTLE WA     FAIR      54  48  80 VRB3      30.23R
$$

*** WEATHER ACROSS MANITOBA...SASKATCHEWAN AND ONTARIO ***
                ***ONTARIO***

CITY           SKY/WX    TMP DP  RH WIND       PRES   REMARKS
GERALDTON      PTCLDY    55  55 100 SW5       29.85S
THUNDER BAY    MOCLDY    54  50  87 SW2       29.88S
SIOUX LOOKOUT  MOCLDY    55  55 100 NW3       29.92R
TORONTO        PTCLDY    59  57  94 SE3       29.90S
BIG TROUT LK   MOCLDY    50  50 100 N8        29.87R
PICKLE LAKE    NOT AVBL
DRYDEN         CLEAR     63  57  82 NW6       29.93R
KENORA         MOCLDY    64  59  82 N5        29.96R
$$
                *** MANITOBA***

CITY           SKY/WX    TMP DP  RH WIND       PRES   REMARKS
BRANDON        MOCLDY    57  52  82 N6        30.04R
DAUPHIN        CLEAR     55  45  67 W3        30.02R
ISLAND LAKE    PTCLDY    52  45  76 W6        29.96R
PILOT MOUND      N/A     63  54  72 N7          N/A
THE PAS        CLEAR     52  41  66 N5        30.03R
THOMPSON       CLEAR     41  37  87 NE5       30.02R
WINNIPEG       PTCLDY    59  54  82 N3        29.99R
LYNN LAKE      CLEAR     39  39 100 SW6       30.02R
CHURCHILL      FLURRIES  32  28  86 N18       30.00R WCI  20
GILLAM         MOCLDY    41  34  75 N8        30.01R
$$
                ***SASKATCHEWAN***

CITY           SKY/WX    TMP DP  RH WIND       PRES   REMARKS
ESTEVAN        PTCLDY    54  45  71 E3        30.09R
KINDERSLEY     PTCLDY    57  39  51 E13       30.02F
LLOYDMINSTER   CLEAR     57  39  51 S12       30.01S
PRINCE ALBERT  PTCLDY    45  36  70 VRB2      30.07R
REGINA         CLEAR     52  39  62 S6        30.10R
YORKTON        CLEAR     54  43  66 W2        30.04F



USA.gov is the U.S. government's official web portal to all federal, state and local government web resources and services.